Location: Augustenthal
(51.7167°N, 10.2833°E)
Time: 07:25:30
(UTC+00:00)

Cosmos 2369 Rocket - Pass Details

Date: 18 May 2021
Orbit: 827 x 854 km, 71.0° (Epoch: 20 June)

Event Time Altitude Azimuth Distance (km) Brightness Sun altitude
Exits shadow 22:08:26 - 222° (SW) 2,821 4.6 -17.0°
Reaches altitude 10° 22:09:27 10° 224° (SW) 2,444 4.3 -17.1°
Maximum altitude 22:15:00 62° 305° (NW) 945 2.6 -17.3°
Drops below altitude 10° 22:20:38 10° 26° (NNE) 2,477 5.4 -17.5°
Sets 22:23:09 0° 30° (NNE) 3,420 6.1 -17.6°
